星链-4348 (STARLINK-4348 )

导读 | 星芒AI

STARLINK-4348 是 SpaceX Starlink 项目中的一颗低轨通信卫星,属于该计划的第四批发射任务之一。它运行在约 550 公里的高度,旨在为全球用户提供高速互联网服务。该卫星采用先进的相控阵天线和激光通信技术,以提升连接速度和网络稳定性。作为 Starlink 卫星群的一部分,STARLINK-4348 有助于扩大覆盖范围,特别是在偏远和网络基础设施薄弱的地区。其部署是 SpaceX 推动全球宽带普及战略的重要一环。

基本信息
目录编号:
53075
目录名称:
STARLINK-4348
国际标识:
2022-077AJ
轨道中心:
EARTH
卫星名称:
星链-4348
卫星全名:
星链-4348 (STARLINK-4348 )
卫星状态:
在轨 (已飞行1259 天)
发射日期:
2022-07-11 UTC
国别 :
美国 (US)
星等 :
--
轨道信息
数据来源 国际轨道数据 AOE轨道数据
星历时间 2025-12-21T01:58:01+0800
13小时前
查看轨道信息
2025-12-20T20:00:00+0800
19小时前
查看轨道信息
半长轴 6941.155km 6941.132km
偏心率 0.0000577 0.0000501
轨道倾角 97.602° 97.604°
近地点辐角 104.461° 134.257°
升交点赤经 172.912° 172.669°
平近点角 255.668° 323.026°
近地点 562.617km 562.647km
远地点 563.419km 563.343km
周期 95.920分钟 95.919分钟
每日圈数 15.012574 15.01265
详细信息
固有亮度:
5
最大亮度:
2.5
卫星平台:
Starlink v1.5
覆盖范围:
全球
运营商:
太空探索技术公司
运营商所在国:
美国
制造商(研发单位):
太空探索技术公司
制造商所在国:
美国
使用方式:
暂无
卫星简介
星链(Starlink)计划是由太空探索技术公司(SpaceX)提出的一个巨型低轨卫星互联网星座项目,计划在2019年至2024年间在太空搭建由约1.2万颗卫星组成的“星链”网络,其中1584颗将部署在地球上空550千米处的近地轨道,并从2020年开始工作。该卫星仍在工作。
2D轨道图
3D轨道图
轨道高度分析图
轨道倾角分析图
轨道综合分析图
查看轨道综合分析图